EW7234 Weather Reports


time (UTC)temp
C
wind
direction
speed
KPH
gust
KPH
rain 1hr
cm
rain 24hr
cm
rain mn
cm
humidity
%
barometer
mb
20260906202524 31 235 6.4 19.3 0.00 2.74 2.74 54 1015.2
20260906202026 30 211 4.8 19.3 0.00 2.74 2.74 55 1015.2
20260906201613 31 222 8.0 19.3 0.00 2.74 2.74 53 1015.2
20260906201027 31 191 4.8 17.7 0.00 2.74 2.74 54 1015.2
20260906200527 30 174 4.8 17.7 0.00 2.74 2.74 55 1015.2
20260906200045 30 180 4.8 17.7 0.00 2.74 2.74 55 1015.2
20260906195524 30 207 4.8 14.5 0.00 2.74 2.74 56 1015.3
20260906195025 30 155 4.8 20.9 0.00 2.74 2.74 56 1015.4
20260906194557 30 183 4.8 20.9 0.00 2.74 2.74 56 1015.4
20260906194025 30 238 4.8 16.1 0.00 2.74 2.74 55 1015.5
20260906193526 30 164 3.2 19.3 0.00 2.74 2.74 57 1015.4
20260906193046 30 211 11.3 19.3 0.00 2.74 2.74 56 1015.5
20260906192525 30 242 4.8 16.1 0.00 2.74 2.74 57 1015.5
20260906192025 30 194 8.0 16.1 0.00 2.74 2.74 56 1015.6
20260906191544 30 139 4.8 16.1 0.00 2.74 2.74 57 1015.7
20260906191028 30 172 3.2 12.9 0.00 2.74 2.74 58 1015.6
20260906190525 30 263 4.8 19.3 0.00 2.74 2.74 59 1015.6
20260906190050 29 214 3.2 19.3 0.00 2.74 2.74 59 1015.8
20260906185524 30 217 4.8 16.1 0.00 2.74 2.74 59 1015.9
20260906185027 29 259 6.4 16.1 0.00 2.74 2.74 59 1015.9
20260906184547 29 166 1.6 12.9 0.00 2.74 2.74 61 1016.0
20260906184024 29 70 1.6 16.1 0.00 2.74 2.74 60 1016.0
20260906183526 28 155 4.8 17.7 0.00 2.74 2.74 59 1016.0
20260906183054 28 267 8.0 17.7 0.00 2.74 2.74 59 1016.2
20260906182525 29 203 6.4 16.1 0.00 2.74 2.74 59 1016.3
20260906182025 28 0 1.6 14.5 0.00 2.74 2.74 64 1016.3
20260906181550 28 286 3.2 16.1 0.00 2.74 2.74 64 1016.5
20260906181025 28 205 3.2 20.9 0.00 2.74 2.74 64 1016.5
20260906180526 28 208 4.8 20.9 0.00 2.74 2.74 64 1016.5
20260906180056 28 248 8.0 17.7 0.00 2.74 2.74 63 1016.6
20260906175526 28 225 4.8 19.3 0.00 2.74 2.74 66 1016.6
20260906175026 27 230 8.0 19.3 0.00 2.74 2.74 65 1016.7
20260906174603 27 158 4.8 19.3 0.00 2.74 2.74 67 1016.9
20260906174026 27 140 6.4 19.3 0.00 2.74 2.74 67 1016.9
20260906173525 27 225 9.7 19.3 0.00 2.74 2.74 66 1017.0
20260906173045 27 214 4.8 19.3 0.00 2.74 2.74 67 1017.0
20260906172528 27 259 6.4 19.3 0.00 2.74 2.74 66 1017.1
20260906172026 27 225 4.8 22.5 0.00 2.74 2.74 67 1017.1
20260906171544 27 222 9.7 22.5 0.00 2.74 2.74 65 1017.1
20260906171025 27 214 9.7 22.5 0.00 2.74 2.74 67 1017.1
20260906170525 27 208 4.8 17.7 0.00 2.74 2.74 68 1017.3
20260906170050 26 194 6.4 17.7 0.00 2.74 2.74 68 1017.4
20260906165527 26 169 1.6 19.3 0.00 2.74 2.74 69 1017.4
20260906165029 26 217 8.0 19.3 0.00 2.74 2.74 68 1017.4
20260906164545 26 233 6.4 20.9 0.00 2.74 2.74 69 1017.3
20260906164027 26 207 6.4 20.9 0.00 2.74 2.74 70 1017.4
20260906163525 26 217 4.8 17.7 0.00 2.74 2.74 72 1017.3
20260906163050 25 200 1.6 19.3 0.00 2.74 2.74 72 1017.3
20260906162528 25 224 4.8 19.3 0.00 2.74 2.74 73 1017.4
20260906162027 25 0 6.4 12.9 0.00 2.74 2.74 72 1017.3
20260906161548 25 0 3.2 11.3 0.00 2.74 2.74 74 1017.4
20260906161027 25 143 1.6 8.0 0.00 2.74 2.74 78 1017.5
20260906160524 25 257 1.6 9.7 0.00 2.74 2.74 78 1017.5
20260906160053 24 0 3.2 16.1 0.00 2.74 2.74 78 1017.5
20260906155527 24 217 4.8 16.1 0.00 2.74 2.74 79 1017.4
20260906155025 23 0 3.2 11.3 0.00 2.74 2.74 80 1017.3
20260906154545 23 242 1.6 11.3 0.00 2.74 2.74 81 1017.3
20260906154026 23 166 1.6 11.3 0.00 2.74 2.74 81 1017.3
20260906153528 23 211 1.6 9.7 0.00 2.74 2.74 83 1017.2
20260906153057 23 0 3.2 17.7 0.00 2.74 2.74 83 1017.2
20260906152527 22 0 3.2 17.7 0.00 2.74 2.74 83 1017.0
20260906152027 22 242 3.2 14.5 0.00 2.74 2.74 83 1017.0
20260906151543 22 183 6.4 12.9 0.00 2.74 2.74 83 1017.0
20260906151031 22 0 3.2 17.7 0.00 2.74 2.74 85 1017.0
20260906150526 22 116 4.8 17.7 0.00 2.74 2.74 84 1017.0
20260906150050 22 188 0.0 9.7 0.00 2.74 2.74 85 1017.1
20260906145526 22 0 1.6 8.0 0.00 2.74 2.74 86 1017.1
20260906145026 22 135 1.6 9.7 0.00 2.74 2.74 87 1017.1
20260906144543 21 78 1.6 9.7 0.00 2.74 2.74 88 1017.1
20260906144024 21 0 0.0 12.9 0.00 2.74 2.74 89 1017.0
20260906143527 21 106 1.6 14.5 0.00 2.74 2.74 88 1017.0
20260906143043 21 0 1.6 14.5 0.00 2.74 2.74 88 1017.0
20260906142525 21 0 0.0 6.4 0.00 2.74 2.74 89 1016.9
20260906142027 21 20 0.0 8.0 0.00 2.74 2.74 90 1016.9
20260906141555 21 0 0.0 8.0 0.00 2.74 2.74 92 1016.8
20260906141024 20 69 1.6 9.7 0.00 2.74 2.74 92 1016.9
20260906140529 20 84 4.8 9.7 0.00 2.74 2.74 93 1016.9
20260906140050 20 97 3.2 9.7 0.00 2.74 2.74 93 1017.0
20260906135525 19 87 4.8 9.7 0.00 2.74 2.74 94 1017.0
20260906135025 19 95 4.8 8.0 0.00 2.74 2.74 94 1016.8
20260906134548 19 86 3.2 6.4 0.00 2.74 2.74 94 1016.9
20260906134027 19 0 0.0 3.2 0.00 2.74 2.74 94 1016.9
20260906133525 19 0 0.0 1.6 0.00 2.74 2.74 94 1016.8
20260906133054 19 0 0.0 1.6 0.03 2.74 2.74 93 1016.9
20260906132524 19 0 0.0 3.2 0.03 2.74 2.74 93 1016.9
20260906132024 19 0 0.0 4.8 0.03 2.74 2.74 93 1016.5
20260906131542 19 0 1.6 8.0 0.03 2.74 2.74 93 1016.6
20260906131025 19 0 0.0 9.7 0.03 2.74 2.74 93 1016.3
20260906130525 19 1 4.8 9.7 0.03 2.74 2.74 93 1016.1
20260906130103 19 20 3.2 11.3 0.03 2.74 2.74 93 1016.2
20260906125527 19 352 1.6 16.1 0.03 2.74 2.74 94 1016.2
20260906125026 19 0 4.8 32.2 0.03 2.74 2.74 94 1015.7
20260906124553 18 82 17.7 32.2 0.03 2.74 2.74 95 1015.6
20260906124027 18 32 16.1 30.6 0.03 2.74 2.74 96 1014.7
20260906123525 18 136 8.0 20.9 0.03 2.74 2.74 97 1014.1
20260906123048 18 68 6.4 12.9 0.00 2.72 2.72 97 1014.0
20260906122528 18 131 3.2 12.9 0.00 2.72 2.72 97 1014.9
20260906122027 18 0 0.0 6.4 0.00 2.72 2.72 97 1015.4
20260906121548 18 0 0.0 0.0 0.00 2.72 2.72 97 1016.3
20260906121028 18 0 0.0 0.0 0.00 2.72 2.72 97 1016.3
20260906120526 18 0 0.0 1.6 0.00 2.72 2.72 97 1016.3
20260906120046 18 0 0.0 1.6 0.00 2.72 2.72 97 1016.3
20260906115531 18 0 0.0 1.6 0.00 2.72 2.72 97 1016.1
20260906115028 18 0 0.0 8.0 0.00 2.72 2.72 97 1015.9
20260906114549 18 0 1.6 17.7 0.00 2.72 2.72 97 1015.7
20260906114027 18 110 3.2 19.3 0.00 2.72 2.72 97 1015.6
20260906113527 18 143 4.8 19.3 0.00 2.72 2.72 97 1015.7
20260906113049 18 124 4.8 11.3 0.00 2.72 2.72 97 1015.8
20260906112533 18 0 1.6 12.9 0.03 2.72 2.72 97 1015.8
20260906112026 18 118 1.6 12.9 0.03 2.72 2.72 97 1015.9
20260906111555 18 0 1.6 9.7 0.03 2.72 2.72 97 1015.9
20260906111028 18 112 0.0 8.0 0.03 2.72 2.72 97 1015.7
20260906110529 18 84 1.6 8.0 0.03 2.72 2.72 97 1015.4
20260906110054 18 80 0.0 9.7 0.03 2.72 2.72 97 1015.4
20260906105528 18 0 1.6 19.3 0.03 2.72 2.72 97 1015.5
20260906105027 18 0 4.8 19.3 0.03 2.72 2.72 97 1015.6
20260906104550 18 87 0.0 14.5 0.05 2.72 2.72 97 1015.7
20260906104026 17 64 8.0 17.7 0.08 2.72 2.72 97 1014.6
20260906103530 18 193 4.8 27.4 0.08 2.72 2.72 96 1014.3
20260906103045 18 169 9.7 27.4 0.08 2.67 2.67 96 1014.5
20260906102528 18 89 8.0 27.4 0.13 2.67 2.67 96 1014.6
20260906102027 18 121 11.3 22.5 0.15 2.67 2.67 96 1013.9
20260906101544 18 207 8.0 22.5 0.25 2.67 2.67 96 1014.6
20260906101028 18 71 8.0 17.7 0.51 2.67 2.67 96 1014.6
20260906100525 18 98 8.0 19.3 1.02 2.67 2.67 96 1015.3
20260906100044 18 105 8.0 24.1 1.57 2.67 2.67 96 1015.4
20260906095527 18 105 9.7 24.1 1.73 2.67 2.67 96 1015.6
20260906095028 18 116 11.3 22.5 1.75 2.64 2.64 96 1015.6
20260906094548 18 82 8.0 17.7 1.85 2.64 2.64 96 1015.8
20260906094028 18 93 6.4 14.5 1.96 2.64 2.64 96 1016.3
20260906093528 18 139 0.0 12.9 2.03 2.64 2.64 96 1017.0
20260906093054 18 228 0.0 12.9 2.08 2.59 2.59 96 1017.3
20260906092524 18 89 3.2 12.9 2.06 2.57 2.57 96 1017.3
20260906092026 18 101 3.2 20.9 2.03 2.54 2.54 96 1017.9
20260906091555 18 84 17.7 20.9 1.91 2.41 2.41 95 1018.1
20260906091028 18 78 1.6 11.3 1.60 2.11 2.11 95 1019.0
20260906090543 18 299 1.6 12.9 1.09 1.57 1.57 92 1019.3
20260906085526 18 332 4.8 16.1 0.53 0.97 0.97 90 1018.5
20260906085024 18 293 6.4 17.7 0.56 0.91 0.91 89 1018.1
20260906084551 18 287 8.0 17.7 0.43 0.76 0.76 89 1017.6
20260906084024 18 267 6.4 12.9 0.36 0.66 0.66 88 1018.0
20260906083525 18 335 4.8 12.9 0.36 0.61 0.61 88 1017.5
20260906083045 18 314 3.2 16.1 0.38 0.51 0.51 88 1017.3
20260906082524 18 335 4.8 16.1 0.48 0.51 0.51 89 1017.4
20260906082024 18 314 8.0 16.1 0.51 0.51 0.51 89 1017.3
20260906081551 18 350 8.0 24.1 0.51 0.51 0.51 89 1017.5
20260906081025 18 302 9.7 24.1 0.48 0.48 0.48 90 1017.8
20260906080528 18 314 12.9 24.1 0.48 0.48 0.48 90 1018.1
20260906080045 18 289 16.1 29.0 0.46 0.46 0.46 90 1018.2
20260906075525 18 293 14.5 29.0 0.41 0.41 0.41 90 1018.3
20260906075024 18 294 12.9 32.2 0.33 0.33 0.33 90 1018.8
20260906074550 18 312 14.5 32.2 0.30 0.30 0.30 91 1018.7
20260906074024 18 332 14.5 37.0 0.30 0.30 0.30 92 1018.7
20260906073525 18 8 16.1 37.0 0.23 0.23 0.23 92 1018.5
20260906073055 18 309 12.9 32.2 0.10 0.10 0.10 92 1018.1
20260906072526 18 328 14.5 41.8 0.03 0.03 0.03 91 1018.6
20260906072026 18 304 22.5 41.8 0.00 0.00 0.00 90 1018.3
20260906071545 19 269 20.9 40.2 0.00 0.00 0.00 89 1018.0
20260906071025 20 311 17.7 40.2 0.00 0.00 0.00 87 1017.9
20260906070526 21 241 17.7 40.2 0.00 0.00 0.00 85 1018.3
20260906070054 22 249 17.7 37.0 0.00 0.00 0.00 78 1018.4
20260906065524 23 304 14.5 30.6 0.00 0.00 0.00 74 1018.3
20260906065023 24 272 1.6 6.4 0.00 0.00 0.00 85 1017.0
20260906064549 24 0 0.0 1.6 0.00 0.00 0.00 86 1016.1
20260906064024 24 0 0.0 9.7 0.00 0.00 0.00 86 1016.0
20260906063527 24 0 0.0 11.3 0.00 0.00 0.00 86 1015.9
20260906063046 24 41 6.4 11.3 0.00 0.00 0.00 86 1015.8
20260906062525 25 0 1.6 6.4 0.00 0.00 0.00 85 1015.6
20260906062024 25 0 0.0 3.2 0.00 0.00 0.00 85 1015.6
20260906061600 25 0 0.0 0.0 0.00 0.00 0.00 85 1015.5
20260906061024 25 0 0.0 4.8 0.00 0.00 0.00 85 1015.6
20260906060524 25 0 0.0 6.4 0.00 0.00 0.00 85 1015.5
20260906060044 25 0 0.0 9.7 0.00 0.00 0.00 85 1015.3
20260906055524 25 0 3.2 9.7 0.00 0.00 0.00 84 1015.3
20260906055024 25 83 1.6 9.7 0.00 0.00 0.00 84 1015.3
20260906054546 25 0 0.0 9.7 0.00 0.00 0.00 84 1015.3
20260906054025 25 77 6.4 9.7 0.00 0.00 0.00 83 1015.4
20260906053524 25 70 3.2 6.4 0.00 0.00 0.00 82 1015.5
20260906053050 25 69 3.2 6.4 0.00 0.00 0.00 82 1015.5
20260906052525 25 0 0.0 4.8 0.00 0.00 0.00 82 1015.3
20260906052025 25 0 0.0 3.2 0.00 0.00 0.00 82 1015.3
20260906051545 25 0 0.0 3.2 0.00 0.00 0.00 82 1015.3
20260906051027 25 0 0.0 3.2 0.00 0.00 0.00 82 1015.3
20260906050527 25 0 0.0 3.2 0.00 0.00 0.00 82 1015.1
20260906050109 25 0 0.0 4.8 0.00 0.00 0.00 82 1014.9
20260906045524 25 0 1.6 6.4 0.00 0.00 0.00 81 1014.7
20260906045025 26 0 1.6 6.4 0.00 0.00 0.00 81 1014.8
20260906044545 26 127 0.0 3.2 0.00 0.00 0.00 81 1014.9
20260906044026 26 0 0.0 6.4 0.00 0.00 0.00 80 1015.1
20260906043524 26 0 0.0 6.4 0.00 0.00 0.00 81 1015.2
20260906043058 26 87 1.6 6.4 0.00 0.00 0.00 80 1015.3
20260906042525 26 106 0.0 4.8 0.00 0.00 0.00 80 1015.3
20260906042025 26 87 0.0 11.3 0.00 0.00 0.00 80 1015.4
20260906041544 26 0 3.2 12.9 0.00 0.00 0.00 80 1015.5
20260906041026 26 0 1.6 12.9 0.00 0.00 0.00 80 1015.6
20260906040524 26 86 8.0 12.9 0.00 0.00 0.00 80 1015.6
20260906040109 26 100 1.6 8.0 0.00 0.00 0.00 80 1015.6
20260906035527 26 93 0.0 9.7 0.00 0.00 0.00 79 1015.7
20260906035025 26 91 1.6 11.3 0.00 0.00 0.00 79 1015.5
20260906034545 26 75 4.8 11.3 0.00 0.00 0.00 79 1015.6
20260906034024 26 84 6.4 11.3 0.00 0.00 0.00 78 1015.6
20260906033524 26 81 6.4 11.3 0.00 0.00 0.00 77 1015.4
20260906033045 27 83 8.0 11.3 0.00 0.00 0.00 76 1015.4
20260906032524 27 84 1.6 8.0 0.00 0.00 0.00 76 1015.4
20260906032024 27 110 1.6 8.0 0.00 0.00 0.00 76 1015.3
20260906031543 27 117 0.0 6.4 0.00 0.00 0.00 76 1015.2
20260906031027 27 0 0.0 6.4 0.00 0.00 0.00 76 1015.1
20260906030523 26 51 0.0 6.4 0.00 0.00 0.00 76 1015.1
20260906030057 26 0 0.0 6.4 0.00 0.00 0.00 76 1014.9
20260906025524 26 93 0.0 8.0 0.00 0.00 0.00 76 1014.8
20260906025025 27 83 1.6 11.3 0.00 0.00 0.00 76 1014.7
20260906024547 27 94 1.6 11.3 0.00 0.00 0.00 75 1014.6
20260906024025 27 97 0.0 9.7 0.00 0.00 0.00 75 1014.5
20260906023525 27 142 1.6 9.7 0.00 0.00 0.00 75 1014.5
20260906023101 27 0 0.0 8.0 0.00 0.00 0.00 74 1014.5
20260906022525 27 81 1.6 8.0 0.00 0.00 0.00 73 1014.3
20260906022025 27 113 0.0 8.0 0.00 0.00 0.00 72 1014.3
20260906021544 27 0 1.6 8.0 0.00 0.00 0.00 72 1014.3
20260906021024 27 110 1.6 8.0 0.00 0.00 0.00 72 1014.3
20260906020524 27 0 3.2 8.0 0.00 0.00 0.00 71 1014.4
20260906020051 27 0 1.6 8.0 0.00 0.00 0.00 71 1014.4
20260906015525 27 86 3.2 9.7 0.00 0.00 0.00 70 1014.6
20260906015025 27 0 1.6 9.7 0.00 0.00 0.00 70 1014.7
20260906014556 27 113 3.2 11.3 0.00 0.00 0.00 69 1014.8
20260906014024 27 63 4.8 12.9 0.00 0.00 0.00 69 1014.8
20260906013525 28 93 6.4 12.9 0.00 0.00 0.00 68 1014.6
20260906013044 28 90 4.8 9.7 0.00 0.00 0.00 68 1014.5
20260906012527 28 0 0.0 9.7 0.00 0.00 0.00 67 1014.6
20260906012024 28 95 3.2 9.7 0.00 0.00 0.00 67 1014.6
20260906011553 28 83 1.6 9.7 0.00 0.00 0.00 66 1014.6
20260906011025 28 130 0.0 9.7 0.00 0.00 0.00 66 1014.7
20260906010526 28 0 1.6 16.1 0.00 0.00 0.00 65 1014.6
20260906010044 28 0 4.8 16.1 0.00 0.00 0.00 64 1014.6
20260906005528 28 98 3.2 8.0 0.00 0.00 0.00 64 1014.8
20260906005025 28 100 3.2 11.3 0.00 0.00 0.00 63 1014.8
20260906004542 28 95 0.0 12.9 0.00 0.00 0.00 62 1014.9
20260906004031 29 86 4.8 12.9 0.00 0.00 0.00 62 1014.9
20260906003530 29 139 3.2 14.5 0.00 0.00 0.00 61 1014.9
20260906003047 29 86 6.4 14.5 0.00 0.00 0.00 60 1014.9
20260906002524 29 94 6.4 19.3 0.00 0.00 0.00 60 1014.7
20260906002025 29 78 9.7 22.5 0.00 0.00 0.00 59 1014.6
20260906001544 29 72 8.0 22.5 0.00 0.00 0.00 58 1014.5
20260906001025 30 103 8.0 17.7 0.00 0.00 0.00 58 1014.3
20260906000525 30 86 4.8 17.7 0.00 0.00 0.00 58 1014.3
20260906000044 30 73 9.7 17.7 0.00 0.00 0.00 57 1014.4
20260905235530 30 106 4.8 17.7 0.00 0.00 0.00 57 1014.4
20260905235027 30 86 9.7 17.7 0.00 0.00 0.00 56 1014.4
20260905234602 30 103 6.4 19.3 0.00 0.00 0.00 55 1014.3
20260905234024 30 0 9.7 24.1 0.00 0.00 0.00 54 1014.4
20260905233525 31 113 9.7 25.7 0.00 0.00 0.00 54 1014.3
20260905233044 31 110 12.9 25.7 0.00 0.00 0.00 53 1014.2
20260905232525 31 64 9.7 25.7 0.00 0.00 0.00 52 1014.1
20260905232026 31 80 11.3 25.7 0.00 0.00 0.00 52 1014.0
20260905231547 31 79 6.4 24.1 0.00 0.00 0.00 52 1014.0
20260905231026 31 102 4.8 22.5 0.00 0.00 0.00 52 1014.0
20260905230524 31 112 8.0 22.5 0.00 0.00 0.00 52 1013.9
20260905230045 31 118 9.7 20.9 0.00 0.00 0.00 52 1013.9
20260905225525 31 101 8.0 27.4 0.00 0.00 0.00 51 1013.7
20260905225025 31 79 12.9 27.4 0.00 0.00 0.00 50 1013.7
20260905224559 32 80 8.0 19.3 0.00 0.00 0.00 50 1013.6
20260905224027 32 169 3.2 20.9 0.00 0.00 0.00 51 1013.6
20260905223529 32 114 9.7 24.1 0.00 0.00 0.00 51 1013.5
20260905223047 32 71 6.4 25.7 0.00 0.00 0.00 52 1013.3
20260905222526 32 91 8.0 29.0 0.00 0.00 0.00 53 1013.3
20260905222026 32 79 14.5 30.6 0.00 0.00 0.00 53 1013.3
20260905221544 32 77 12.9 30.6 0.00 0.00 0.00 54 1013.5
20260905221025 31 129 11.3 25.7 0.00 0.00 0.00 54 1013.3
20260905220526 32 63 9.7 22.5 0.00 0.00 0.00 54 1013.4
20260905220044 32 85 6.4 30.6 0.00 0.00 0.00 55 1013.5
20260905215526 31 91 14.5 30.6 0.00 0.00 0.00 54 1013.5
20260905215029 32 86 14.5 29.0 0.00 0.00 0.00 54 1013.5
20260905214550 32 98 9.7 27.4 0.00 0.00 0.00 53 1013.7
20260905214026 31 214 11.3 29.0 0.00 0.00 0.00 53 1013.8
20260905213525 32 77 9.7 30.6 0.00 0.00 0.00 52 1013.8
20260905213044 31 36 14.5 30.6 0.00 0.00 0.00 52 1014.1
20260905212524 31 41 11.3 27.4 0.00 0.00 0.00 52 1014.2
20260905212027 31 179 6.4 33.8 0.00 0.00 0.00 52 1014.4
20260905211543 31 73 16.1 33.8 0.00 0.00 0.00 51 1014.4
20260905211026 31 120 17.7 30.6 0.00 0.00 0.00 52 1014.5
20260905210525 31 69 20.9 30.6 0.00 0.00 0.00 52 1014.6
20260905210049 31 79 12.9 24.1 0.00 0.00 0.00 53 1014.7
20260905205524 31 105 11.3 24.1 0.00 0.00 0.00 54 1014.6
20260905205024 31 107 11.3 25.7 0.00 0.00 0.00 53 1014.7
20260905204546 31 180 9.7 25.7 0.00 0.00 0.00 52 1014.8
20260905204024 31 86 11.3 25.7 0.00 0.00 0.00 54 1014.9
20260905203527 31 92 12.9 25.7 0.00 0.00 0.00 55 1014.8
20260905203050 30 86 9.7 27.4 0.00 0.00 0.00 55 1014.9